Airfield :
LOGIN :

Register | Disclaimer

   EN    FR    IT 

 










Legend :    VFR   Marginal VFR   IFR   Intensive IFR   Very Intensive IFR
Visi :
Ceiling :
>= 8 km
>= 3000ft
5 to 8 km
1000 to 3000 ft
1500m to 5 km
500 to 1000 ft
800 to 1500m
200 to 500 ft
< 800m
< 200 ft
Symbols :   Thunderstorms  Fog  Heavy snow  Heavy precipitations  Wind > 20 kt
SIGMETs :     Misc.  Thunderstorms  Icing  Turbulence  Mountain Waves  Volcanic Ashes







- Airport Elevation : 74 ft
- IATA code : NDZ


ETMN - Cuxhaven Nordholz Sea AB

CURRENT METAR :
  • 112120Z 34004KT 9999 BKN027 04/00 Q1023 BLU

EXPIRED METARs :
  • 112020Z 02006KT 9999 BKN021 04/00 Q1023 WHT
  • 111958Z 35005KT 9999 BKN022 04/00 Q1023 WHT FCST CANCEL
  • 111920Z 02006KT 9999 BKN021 04/M00 Q1023 WHT WHT

TAF AMD TAF ETMN
Valid from the 11 at 18:00 until the 12 at 03:00 UTC


111920Z 1118/1203 03005KT 9999 NSW BKN020
TEMPO 1119/1203 01005KT 8000 NSW FEW015 BKN025 CANCEL 2000
No reported NOTAMs for that airfield.



MET'MAP, your aeronautical weather chart ! - Copyright ORBIFLY December 2007 - Disclaimer

ORBIFLY MET'MAP TEAM :

Programming & Development : Alexandra Zaïnal
Concept & Development : Baudouin d'Aumeries
Co-Development & Prog : Marc-Olivier Méhu
Technical & hardware support : Manuel Goepfert

Contact : metmap@orbifly.com




SOURCES & CREDITS :

   NOAA